[[{"header":{"parameterUnit":"m.s-1","parameterCategory":1,"la1":30.2991,"la2":30.254,"lo1":-89.0895,"lo2":-89.0444,"dy":0.0017,"dx":0.0017,"nx":28,"ny":28,"refTime":"2024-08-01T09:00:00:Z","depth":0,"parameterNumber":2,"parameterNumberName":"U-component_of_WINDS"},"data":[0,0,0,0,0,0,0,0,0,0,0,0,0,0,0,0,0,0,0,0,0,0,0,0,0,0,0,0,0,0,0,0,0,0,0,0,0,0,0,0,0,0,0,0,0,0,0,0,0,0,0,0,0,0,0,0,0,0,-0.6031,-0.603,0,-0.5922,-0.592,-0.5919,-0.5886,-0.5887,-0.5887,-0.5888,-0.5773,-0.577,-0.5766,0,0,0,0,0,0,0,0,0,0,0,0,0,-0.621,-0.6206,-0.6031,-0.603,-0.6028,-0.5922,-0.592,-0.5919,-0.5886,-0.5887,-0.5888,-0.5888,-0.5775,-0.577,-0.5766,0,0,0,0,0,0,0,0,0,0,0,0,0,-0.6119,-0.6205,-0.6031,-0.5999,-0.5995,-0.5922,-0.592,-0.5918,-0.5886,-0.5887,-0.5888,-0.5888,-0.5776,-0.5771,-0.5765,-0.5716,0,0,-0.5749,-0.5747,0,0,0,0,0,0,0,0,-0.6124,-0.6113,-0.6005,-0.6001,-0.5997,-0.5919,-0.5941,-0.585,-0.5886,-0.5927,-0.5888,-0.5889,-0.5821,-0.5812,-0.5789,-0.571,-0.5705,-0.5749,-0.5745,-0.5743,-0.5742,0,0,0,0,0,0,0,-0.6131,-0.6117,-0.5988,-0.6004,-0.5998,-0.599,-0.5978,-0.5924,-0.5871,-0.5924,-0.5921,-0.5909,-0.5819,-0.5795,-0.5786,-0.5704,-0.5749,-0.5744,-0.5741,-0.5739,-0.558,-0.5579,0,0,0,0,0,0,-0.6143,-0.6123,-0.5991,-0.5984,-0.6064,-0.5986,-0.5973,-0.5943,-0.5871,-0.5861,-0.5908,-0.5908,-0.5803,-0.5793,-0.5782,-0.572,-0.5743,-0.5738,-0.5735,-0.5581,-0.5579,-0.5578,0,0,0,0,0,0,-0.6147,-0.6131,-0.5995,-0.6053,-0.6035,-0.5982,-0.5949,-0.594,-0.5916,-0.5859,-0.585,-0.5894,-0.5804,-0.579,-0.5733,-0.5715,-0.5736,-0.5731,-0.5582,-0.558,-0.5579,-0.5594,0,0,0,0,0,0,-0.6152,-0.6133,-0.6114,-0.6053,-0.6032,-0.5948,-0.5948,-0.5937,-0.5907,-0.5906,-0.5843,-0.5833,-0.5803,-0.5741,-0.5728,-0.5708,-0.5727,-0.5583,-0.5581,-0.5579,-0.5595,-0.5594,-0.5592,0,0,0,0,0,-0.6158,-0.6121,-0.6113,-0.6097,-0.6007,-0.5947,-0.5935,-0.5902,-0.5906,-0.5886,-0.585,-0.5835,-0.572,-0.5736,-0.572,-0.5699,-0.5584,-0.5582,-0.5579,-0.5596,-0.5594,-0.5592,0,0,0,0,0,0,-0.618,-0.6113,-0.6102,-0.6045,-0.6002,-0.5942,-0.5915,-0.5901,-0.5855,-0.5856,-0.5816,-0.5802,-0.5748,-0.5718,-0.5736,-0.5648,-0.5651,-0.5646,-0.5669,-0.5667,-0.5665,-0.5673,-0.5722,0,0,0,0,0,-0.6179,-0.6137,-0.608,-0.6034,-0.6014,-0.5969,-0.5941,-0.592,-0.5873,-0.5855,-0.5815,-0.577,-0.5724,-0.5694,-0.5648,-0.5591,-0.5577,-0.5569,-0.5568,-0.5567,-0.5562,-0.5531,-0.5527,-0.5571,-0.5571,-0.5571,0,0,-0.6174,-0.6132,-0.6108,-0.6037,-0.6002,-0.5959,-0.5953,-0.5908,-0.5875,-0.5848,-0.5792,-0.5761,-0.5708,-0.5652,-0.5625,-0.5625,-0.5547,-0.5564,-0.5564,-0.5559,-0.5528,-0.5524,-0.5521,-0.5569,-0.5569,-0.557,0,0,-0.6144,-0.6108,-0.6067,-0.6032,-0.5979,-0.5949,-0.594,-0.5882,-0.5861,-0.5805,-0.5783,-0.5744,-0.5665,-0.5629,-0.56,-0.5559,-0.5544,-0.5545,-0.5537,-0.5507,-0.5504,-0.5501,-0.5486,-0.5481,-0.5541,-0.5541,-0.5541,0,-0.6144,-0.608,-0.6047,-0.6003,-0.5973,-0.5948,-0.5906,-0.5873,-0.5807,-0.5787,-0.5789,-0.569,-0.5653,-0.5588,-0.5578,-0.5556,-0.5544,-0.5552,-0.5507,-0.5504,-0.55,-0.5486,-0.5481,-0.5542,-0.5542,-0.5542,-0.5541,0,-0.6083,-0.6039,-0.6012,-0.5951,-0.5918,-0.5875,-0.5836,-0.5806,-0.5788,-0.5759,-0.5702,-0.5657,-0.5602,-0.5586,-0.5567,-0.5518,-0.552,-0.5515,-0.5518,-0.5497,-0.5483,-0.5477,-0.5542,-0.5542,-0.5542,-0.5542,0,0,-0.6062,-0.5985,-0.5975,-0.5948,-0.5889,-0.5854,-0.581,-0.5758,-0.5734,-0.569,-0.5652,-0.5587,-0.5583,-0.555,-0.5527,-0.5501,-0.5472,-0.5499,-0.5497,-0.5496,-0.5417,-0.5421,-0.5415,-0.5463,-0.5462,-0.5461,-0.5422,0,-0.6024,-0.5946,-0.5916,-0.5852,-0.5811,-0.5788,-0.575,-0.571,-0.5681,-0.5642,-0.5611,-0.5566,-0.5563,-0.5543,-0.5516,-0.5482,-0.5456,-0.5484,-0.5427,-0.5426,-0.5441,-0.5408,-0.5412,-0.5377,-0.5416,-0.5415,-0.5414,0,-0.5969,-0.5926,-0.5859,-0.5806,-0.5788,-0.5754,-0.5705,-0.5668,-0.5622,-0.5603,-0.5569,-0.5548,-0.5502,-0.5509,-0.5444,-0.5464,-0.544,-0.5419,-0.5417,-0.541,-0.5418,-0.54,-0.5365,-0.5359,-0.5405,-0.5406,-0.5407,0,-0.596,-0.5886,-0.5836,-0.5813,-0.5751,-0.5728,-0.5701,-0.5656,-0.5627,-0.5584,-0.5565,-0.5516,-0.549,-0.5453,-0.542,-0.5428,-0.5359,-0.5363,-0.5342,-0.5343,-0.5328,-0.5329,-0.5288,-0.5313,-0.5313,-0.5313,-0.5313,0,-0.592,-0.588,-0.5832,-0.5801,-0.5755,-0.5722,-0.5677,-0.5649,-0.5609,-0.5573,-0.5549,-0.5515,-0.5474,-0.5435,-0.5409,-0.536,-0.5348,-0.5332,-0.5325,-0.5334,-0.5336,-0.5316,-0.5318,-0.5311,-0.5312,-0.5312,-0.5312,0,-0.5902,-0.5868,-0.5813,-0.5759,-0.5744,-0.5713,-0.5667,-0.5636,-0.5608,-0.5562,-0.555,-0.5505,-0.5458,-0.5422,-0.536,-0.5343,-0.5291,-0.5284,-0.5307,-0.5304,-0.5285,-0.5287,-0.5229,-0.522,-0.5252,-0.5252,-0.5251,0,-0.5879,-0.5848,-0.5791,-0.5766,-0.5739,-0.5698,-0.5669,-0.5635,-0.5606,-0.5553,-0.5529,-0.548,-0.544,-0.5366,-0.5328,-0.5281,-0.5272,-0.5255,-0.5265,-0.5275,-0.5272,-0.5274,-0.5271,-0.5254,-0.5254,-0.5254,-0.5253,0,-0.5841,-0.5827,-0.5786,-0.574,-0.5707,-0.5668,-0.563,-0.561,-0.557,-0.5538,-0.549,-0.5459,-0.5397,-0.535,-0.53,-0.5271,-0.5255,-0.5251,-0.5244,-0.5252,-0.5266,-0.5258,-0.5303,-0.5252,-0.5252,-0.5252,-0.5252,-0.5253,-0.582,-0.5791,-0.5748,-0.5704,-0.5672,-0.5637,-0.5606,-0.5575,-0.5535,-0.5483,-0.5465,-0.5416,-0.5373,-0.5304,-0.5275,-0.5237,-0.5236,-0.5225,-0.5223,-0.522,-0.5221,-0.5273,-0.5227,-0.5227,-0.5227,-0.5227,-0.5227,0,-0.5781,-0.5753,-0.5713,-0.566,-0.5626,-0.5616,-0.5573,-0.5545,-0.5503,-0.5464,-0.5425,-0.5371,-0.5325,-0.5285,-0.5237,-0.5214,-0.5206,-0.5203,-0.5204,-0.5198,-0.5224,-0.5236,-0.521,-0.521,-0.521,-0.521,-0.521,-0.521,-0.5757,-0.5709,-0.5689,-0.5625,-0.5597,-0.5549,-0.5526,-0.5494,-0.5463,-0.5404,-0.5366,-0.5341,-0.5301,-0.5251,-0.5209,-0.5198,-0.5182,-0.518,-0.5168,-0.5193,-0.5196,-0.5198,-0.5208,-0.5177,-0.5177,-0.5144,-0.5144,-0.5144]},{"header":{"parameterUnit":"m.s-1","parameterCategory":1,"la1":30.2991,"la2":30.254,"lo1":-89.0895,"lo2":-89.0444,"dy":0.0017,"dx":0.0017,"nx":28,"ny":28,"refTime":"2024-08-01T09:00:00:Z","depth":0,"parameterNumber":3,"parameterNumberName":"V-component_of_WINDS"},"data":[0,0,0,0,0,0,0,0,0,0,0,0,0,0,0,0,0,0,0,0,0,0,0,0,0,0,0,0,0,0,0,0,0,0,0,0,0,0,0,0,0,0,0,0,0,0,0,0,0,0,0,0,0,0,0,0,0,0,1.5619,1.5619,0,1.5601,1.5601,1.5601,1.5633,1.5634,1.5635,1.5636,1.5616,1.5614,1.5613,0,0,0,0,0,0,0,0,0,0,0,0,0,1.5677,1.5676,1.5619,1.5619,1.5619,1.5601,1.5601,1.56,1.5633,1.5634,1.5636,1.5637,1.5616,1.5614,1.5612,0,0,0,0,0,0,0,0,0,0,0,0,0,1.5655,1.5675,1.5619,1.5633,1.5634,1.5601,1.5601,1.56,1.5633,1.5634,1.5636,1.5637,1.5617,1.5614,1.5612,1.5565,0,0,1.5605,1.5604,0,0,0,0,0,0,0,0,1.5656,1.5652,1.5631,1.5632,1.5633,1.5621,1.5614,1.5588,1.5632,1.5633,1.5636,1.5638,1.5616,1.5614,1.5607,1.5564,1.5563,1.5605,1.5603,1.5602,1.5602,0,0,0,0,0,0,0,1.5657,1.5653,1.5612,1.563,1.5632,1.5638,1.5637,1.5609,1.5615,1.5633,1.5635,1.5633,1.5617,1.5609,1.5606,1.5562,1.5605,1.5603,1.5601,1.56,1.5474,1.5472,0,0,0,0,0,0,1.5658,1.5654,1.5612,1.5611,1.5649,1.5636,1.5634,1.5623,1.5616,1.5616,1.5632,1.5635,1.5612,1.5609,1.5606,1.5546,1.5602,1.56,1.5599,1.5476,1.5474,1.5472,0,0,0,0,0,0,1.5659,1.5654,1.5613,1.5633,1.5629,1.5633,1.562,1.5622,1.5614,1.5615,1.5616,1.5622,1.5613,1.5609,1.5574,1.5546,1.5599,1.5597,1.5478,1.5475,1.5473,1.5428,0,0,0,0,0,0,1.566,1.5654,1.5637,1.5633,1.5628,1.5582,1.5619,1.562,1.561,1.5614,1.5606,1.5607,1.5614,1.5577,1.5571,1.5543,1.5595,1.5481,1.5477,1.5474,1.5432,1.5424,1.5417,0,0,0,0,0,1.5662,1.5626,1.5636,1.5631,1.5607,1.5581,1.5578,1.5588,1.5608,1.559,1.5589,1.5607,1.555,1.5573,1.5567,1.5538,1.5483,1.5478,1.5474,1.5435,1.5425,1.5417,0,0,0,0,0,0,1.5626,1.5625,1.5637,1.5598,1.5589,1.5586,1.5564,1.5578,1.5562,1.5566,1.5579,1.5577,1.5537,1.5535,1.556,1.5489,1.5519,1.5514,1.5492,1.5483,1.5475,1.5475,1.5593,0,0,0,0,0,1.5614,1.5594,1.5594,1.556,1.5555,1.556,1.5549,1.5557,1.5548,1.5545,1.5542,1.5532,1.5511,1.5497,1.5479,1.5432,1.5428,1.5409,1.5401,1.5395,1.5389,1.5359,1.5349,1.5457,1.5457,1.5457,0,0,1.5588,1.5585,1.5572,1.5552,1.5547,1.5523,1.5557,1.5532,1.5514,1.5541,1.5506,1.5503,1.5492,1.545,1.5431,1.5446,1.5358,1.539,1.5385,1.5382,1.5354,1.5343,1.5334,1.5454,1.5455,1.5455,0,0,1.5528,1.5526,1.5495,1.5488,1.5478,1.5482,1.5474,1.5468,1.5467,1.5433,1.5451,1.543,1.5395,1.5385,1.5376,1.5309,1.5322,1.5302,1.5262,1.5233,1.5225,1.5217,1.5189,1.5179,1.5297,1.5297,1.5297,0,1.5497,1.5464,1.5477,1.545,1.5439,1.5462,1.5429,1.5421,1.5406,1.5397,1.5415,1.5369,1.5363,1.5316,1.5299,1.5293,1.5281,1.5302,1.5225,1.5218,1.5211,1.5184,1.5174,1.5294,1.5294,1.5295,1.5295,0,1.5424,1.5401,1.5377,1.536,1.5347,1.5317,1.5323,1.5308,1.5317,1.5317,1.528,1.5274,1.5252,1.5242,1.5252,1.5195,1.5204,1.5223,1.5254,1.5197,1.5172,1.5162,1.529,1.5291,1.5292,1.5293,0,0,1.5341,1.5331,1.5321,1.5312,1.5302,1.5283,1.5253,1.5232,1.5217,1.5205,1.5177,1.5146,1.5162,1.5151,1.5159,1.5134,1.5075,1.5156,1.5156,1.5137,1.5008,1.4991,1.4979,1.5086,1.5084,1.5083,1.5007,0,1.5279,1.5227,1.5236,1.5185,1.5161,1.5181,1.5154,1.5144,1.5143,1.5121,1.512,1.5096,1.5122,1.5114,1.5091,1.5088,1.5049,1.5094,1.5056,1.5055,1.5055,1.4967,1.4949,1.4879,1.4998,1.4996,1.4995,0,1.5199,1.5183,1.5129,1.5119,1.5109,1.5085,1.5064,1.5044,1.5031,1.5032,1.5018,1.503,1.4996,1.5029,1.4981,1.5011,1.4996,1.4992,1.4989,1.4983,1.5019,1.4954,1.4857,1.4845,1.4981,1.4982,1.4983,0,1.5138,1.5104,1.5066,1.5058,1.5047,1.5028,1.5022,1.5011,1.4997,1.4978,1.4968,1.4946,1.4933,1.4915,1.4919,1.4943,1.4868,1.4902,1.4864,1.4864,1.4845,1.4846,1.474,1.4842,1.4842,1.4842,1.4843,0,1.5066,1.5031,1.5038,1.5014,1.4974,1.4985,1.4944,1.4941,1.493,1.4904,1.4921,1.4896,1.4904,1.4879,1.4882,1.4838,1.4834,1.4831,1.4831,1.4827,1.4827,1.4815,1.4819,1.484,1.484,1.4841,1.4841,0,1.499,1.4995,1.4954,1.4946,1.4943,1.4913,1.4905,1.4881,1.4882,1.4848,1.484,1.484,1.481,1.4813,1.478,1.4782,1.4727,1.4735,1.4731,1.4731,1.4691,1.4693,1.4572,1.4554,1.4671,1.467,1.4669,0,1.4942,1.4915,1.4904,1.4888,1.488,1.4855,1.4839,1.4848,1.483,1.4812,1.4789,1.4761,1.4739,1.469,1.4685,1.4658,1.4664,1.4623,1.466,1.4655,1.4658,1.4657,1.4653,1.4614,1.4613,1.4612,1.4611,0,1.4854,1.4857,1.4835,1.4812,1.4793,1.4776,1.476,1.4745,1.4751,1.4731,1.4701,1.4683,1.4648,1.4618,1.4592,1.4584,1.4596,1.46,1.4589,1.4582,1.4579,1.4576,1.4706,1.4602,1.4603,1.4604,1.4604,1.4604,1.4788,1.4764,1.4751,1.4724,1.4713,1.4697,1.4673,1.4669,1.4644,1.4617,1.4623,1.4587,1.4571,1.4538,1.4527,1.4497,1.4512,1.4497,1.4493,1.4488,1.4481,1.4587,1.4493,1.4494,1.4494,1.4494,1.4494,0,1.4697,1.469,1.4665,1.4642,1.462,1.4636,1.4618,1.4598,1.4566,1.4551,1.4528,1.4491,1.4461,1.4453,1.4424,1.4401,1.4406,1.4393,1.4393,1.4389,1.4472,1.4483,1.4389,1.4389,1.4389,1.4389,1.4389,1.4389,1.4647,1.4605,1.4606,1.4557,1.4549,1.4515,1.4502,1.4486,1.4473,1.4431,1.4406,1.4402,1.4388,1.4357,1.4329,1.4328,1.4314,1.4297,1.4297,1.4374,1.4385,1.4394,1.4404,1.4296,1.4295,1.4217,1.4216,1.4215]}]]